Weather History for KPOB - February, 2014

Change the Weather History Date:

Tuesday, February 25, 2014

  Actual Average Record
Temperature  
Mean Temperature 46 °F -  
Max Temperature 62 °F 57 °F 74 °F (2011)
Min Temperature 29 °F 38 °F 18 °F (1989)
Degree Days  
Heating Degree Days 20    
Moisture  
Dew Point 29 °F    
Average Humidity 61    
Maximum Humidity 94    
Minimum Humidity 31    
Precipitation  
Precipitation 0.00 in - - ()
Sea Level Pressure  
Sea Level Pressure 30.02 in    
Wind  
Wind Speed 3 mph (NE)    
Max Wind Speed 12 mph    
Max Gust Speed -    
Visibility 10 miles    
Events      
Averages and records for this station are not official NWS values.
T = Trace of Precipitation, MM = Missing Value Source: NWS Daily Summary

Daily Weather History Graph

Daily Weather History Graph

Search for Another Location

Airport or City:

Trip Planner

Search our weather history database for the weather conditions in past years. The results will help you decide how hot, cold, wet, or windy it might be!

Date:

Astronomy

Feb. 25, 2014 Rise Set
Actual Time 6:50 AM EST 6:08 PM EST
Civil Twilight 6:25 AM EST 6:33 PM EST
Nautical Twilight 5:55 AM EST 7:03 PM EST
Astronomical Twilight 5:26 AM EST 7:32 PM EST
Moon 3:37 AM EST (2/25) 2:17 PM EST (2/25)
Length of Visible Light 12h 08m
Length of Day
11h 17m
Waning Crescent, 18% of the Moon is Illuminated
Feb 25
Waning Crescent
Mar 1
New
Mar 8
First Quarter
Mar 16
Full
Mar 23
Last Quarter

Hourly Weather History & Observations

Time (EST) Temp. Windchill Dew Point Humidity Pressure Visibility Wind Dir Wind Speed Gust Speed Precip Events Conditions
12:58 AM 34.7 °F - 32.0 °F 90% 30.14 in 10.0 mi NNE 2.3 mph - N/A   Clear
1:58 AM 34.0 °F - 31.8 °F 92% 30.12 in 10.0 mi NNE 2.3 mph - N/A   Clear
2:58 AM 32.5 °F - 30.6 °F 92% 30.09 in 10.0 mi Calm Calm - N/A   Clear
3:58 AM 32.2 °F - 30.0 °F 92% 30.08 in 10.0 mi NNE 1.2 mph - N/A   Clear
4:58 AM 31.8 °F - 28.4 °F 87% 30.09 in 10.0 mi Calm Calm - N/A   Clear
5:58 AM 29.8 °F - 28.2 °F 94% 30.07 in 10.0 mi NNE 2.3 mph - N/A   Clear
6:58 AM 30.6 °F - 27.7 °F 89% 30.09 in 10.0 mi Calm Calm - N/A   Scattered Clouds
7:58 AM 33.4 °F - 30.2 °F 88% 30.09 in 10.0 mi North 2.3 mph - N/A   Clear
8:58 AM 41.0 °F 38.0 °F 28.9 °F 62% 30.06 in 10.0 mi NE 4.6 mph - N/A   Overcast
9:58 AM 50.2 °F - 20.1 °F 31% 30.03 in 10.0 mi SSE 5.8 mph - N/A   Overcast
10:58 AM 52.9 °F - 24.6 °F 33% 30.01 in 10.0 mi SSE 3.5 mph - N/A   Mostly Cloudy
11:58 AM 55.9 °F - 27.9 °F 34% 29.99 in 10.0 mi Variable 1.2 mph - N/A   Overcast
12:58 PM 59.9 °F - 34.5 °F 39% 29.97 in 10.0 mi Variable 6.9 mph - N/A   Mostly Cloudy
1:58 PM 62.1 °F - 35.2 °F 37% 29.94 in 10.0 mi NNW 9.2 mph - N/A   Clear
2:58 PM 62.6 °F - 31.6 °F 31% 29.92 in 10.0 mi NW 5.8 mph - N/A   Partly Cloudy
3:58 PM 61.2 °F - 31.3 °F 32% 29.93 in 10.0 mi North 10.4 mph - N/A   Clear
4:58 PM 59.2 °F - 30.0 °F 33% 29.93 in 10.0 mi NNE 8.1 mph - N/A   Clear
5:58 PM 54.3 °F - 25.3 °F 33% 29.96 in 10.0 mi NE 10.4 mph - N/A   Clear
6:58 PM 47.8 °F - 25.2 °F 41% 29.96 in 10.0 mi NE 11.5 mph - N/A   Scattered Clouds
7:58 PM 44.8 °F 42.4 °F 27.5 °F 51% 29.99 in 10.0 mi NE 4.6 mph - N/A   Mostly Cloudy
8:58 PM 44.8 °F 41.6 °F 26.4 °F 49% 29.99 in 10.0 mi East 5.8 mph - N/A   Overcast
9:58 PM 38.8 °F 36.5 °F 29.1 °F 68% 30.00 in 10.0 mi East 3.5 mph - N/A   Clear
10:58 PM 37.8 °F - 30.7 °F 76% 30.00 in 10.0 mi ENE 2.3 mph - N/A   Partly Cloudy
11:58 PM 36.3 °F - 31.1 °F 81% 29.99 in 10.0 mi ENE 2.3 mph - N/A   Mostly Cloudy